Time,TemperatureF,DewpointF,PressureIn,WindDirection,WindDirectionDegrees,WindSpeedMPH,WindSpeedGustMPH,Humidity,HourlyPrecipIn,Conditions,Clouds,dailyrainin,SoftwareType,DateUTC
2013-01-05 00:00:00,28.6,21.0,29.79,NW,310,4.0,12.0,73,0.00,,,0.00,meteohub,2013-01-05 05:00:00,
2013-01-05 00:02:00,28.4,21.2,29.79,NW,316,4.0,10.0,74,0.00,,,0.00,meteohub,2013-01-05 05:02:00,
2013-01-05 00:07:00,28.4,21.2,29.79,NW,317,0.0,10.0,74,0.00,,,0.00,meteohub,2013-01-05 05:07:00,
2013-01-05 00:12:00,28.4,21.2,29.79,WNW,287,2.0,8.0,74,0.00,,,0.00,meteohub,2013-01-05 05:12:00,
2013-01-05 00:17:00,28.4,21.2,29.79,NNW,330,0.0,8.0,74,0.00,,,0.00,meteohub,2013-01-05 05:17:00,
2013-01-05 00:22:00,28.4,21.6,29.79,NNW,334,5.0,8.0,75,0.00,,,0.00,meteohub,2013-01-05 05:22:00,
2013-01-05 00:27:00,28.4,21.6,29.79,NW,314,4.0,8.0,75,0.00,,,0.00,meteohub,2013-01-05 05:27:00,
2013-01-05 00:32:00,28.4,21.6,29.79,WNW,300,11.0,11.0,75,0.00,,,0.00,meteohub,2013-01-05 05:32:00,
2013-01-05 00:37:00,28.4,21.6,29.79,NW,308,3.0,11.0,75,0.00,,,0.00,meteohub,2013-01-05 05:37:00,
2013-01-05 00:42:00,28.4,21.7,29.79,NNE,21,0.0,11.0,76,0.00,,,0.00,meteohub,2013-01-05 05:42:00,
2013-01-05 00:47:00,28.4,21.7,29.79,NW,317,5.0,11.0,76,0.00,,,0.00,meteohub,2013-01-05 05:47:00,
2013-01-05 00:52:00,28.4,21.7,29.79,NNW,327,0.0,11.0,76,0.00,,,0.00,meteohub,2013-01-05 05:52:00,
2013-01-05 00:57:00,28.4,22.1,29.79,NW,305,4.0,11.0,77,0.00,,,0.00,meteohub,2013-01-05 05:57:00,
2013-01-05 01:02:00,28.2,21.9,29.79,North,353,7.0,11.0,77,0.00,,,0.00,meteohub,2013-01-05 06:02:00,
2013-01-05 01:07:00,28.2,21.9,29.82,SW,229,4.0,11.0,77,0.00,,,0.00,meteohub,2013-01-05 06:07:00,
2013-01-05 01:12:00,28.2,21.9,29.82,WNW,293,0.0,11.0,77,0.00,,,0.00,meteohub,2013-01-05 06:12:00,
2013-01-05 01:17:00,28.2,21.9,29.82,NW,313,5.0,8.0,77,0.00,,,0.00,meteohub,2013-01-05 06:17:00,
2013-01-05 01:22:00,28.2,22.3,29.82,NNW,339,3.0,8.0,78,0.00,,,0.00,meteohub,2013-01-05 06:22:00,
2013-01-05 01:27:00,28.2,22.3,29.82,NW,322,0.0,8.0,78,0.00,,,0.00,meteohub,2013-01-05 06:27:00,
2013-01-05 01:32:00,28.2,22.3,29.82,NW,321,6.0,8.0,78,0.00,,,0.00,meteohub,2013-01-05 06:32:00,
2013-01-05 01:37:00,28.2,22.3,29.82,NNW,344,8.0,8.0,78,0.00,,,0.00,meteohub,2013-01-05 06:37:00,
2013-01-05 01:42:00,28.2,22.3,29.82,NW,317,0.0,8.0,78,0.00,,,0.00,meteohub,2013-01-05 06:42:00,
2013-01-05 01:47:00,28.2,22.3,29.82,NW,316,4.0,8.0,78,0.00,,,0.00,meteohub,2013-01-05 06:47:00,
2013-01-05 01:52:00,28.0,22.1,29.82,NW,316,0.0,8.0,78,0.00,,,0.00,meteohub,2013-01-05 06:52:00,
2013-01-05 01:57:00,28.0,22.1,29.82,West,269,0.0,6.0,78,0.00,,,0.00,meteohub,2013-01-05 06:57:00,
2013-01-05 02:02:00,27.9,21.9,29.82,NNW,348,0.0,6.0,78,0.00,,,0.00,meteohub,2013-01-05 07:02:00,
2013-01-05 02:07:00,27.7,21.7,29.82,NNW,348,0.0,4.0,78,0.00,,,0.00,meteohub,2013-01-05 07:07:00,
2013-01-05 02:12:00,27.7,21.7,29.82,NNW,348,0.0,4.0,78,0.00,,,0.00,meteohub,2013-01-05 07:12:00,
2013-01-05 02:17:00,27.5,21.6,29.82,NNE,24,0.0,4.0,78,0.00,,,0.00,meteohub,2013-01-05 07:17:00,
2013-01-05 02:22:00,27.5,21.6,29.82,WNW,303,3.0,4.0,78,0.00,,,0.00,meteohub,2013-01-05 07:22:00,
2013-01-05 02:27:00,27.3,21.4,29.82,WNW,285,0.0,4.0,78,0.00,,,0.00,meteohub,2013-01-05 07:27:00,
2013-01-05 02:32:00,27.3,21.4,29.82,NNW,327,0.0,4.0,78,0.00,,,0.00,meteohub,2013-01-05 07:32:00,
2013-01-05 02:37:00,27.3,21.4,29.85,NW,312,3.0,4.0,78,0.00,,,0.00,meteohub,2013-01-05 07:37:00,
2013-01-05 02:42:00,27.5,21.9,29.85,NNW,340,0.0,5.0,79,0.00,,,0.00,meteohub,2013-01-05 07:42:00,
2013-01-05 02:47:00,27.5,21.9,29.85,WSW,248,0.0,5.0,79,0.00,,,0.00,meteohub,2013-01-05 07:47:00,
2013-01-05 02:52:00,27.5,21.9,29.85,NW,322,0.0,6.0,79,0.00,,,0.00,meteohub,2013-01-05 07:52:00,
2013-01-05 02:57:00,27.5,21.9,29.85,NNW,331,3.0,6.0,79,0.00,,,0.00,meteohub,2013-01-05 07:57:00,
2013-01-05 03:02:00,27.7,22.1,29.85,NW,305,6.0,6.0,79,0.00,,,0.00,meteohub,2013-01-05 08:02:00,
2013-01-05 03:07:00,27.7,22.1,29.85,WNW,295,0.0,6.0,79,0.00,,,0.00,meteohub,2013-01-05 08:07:00,
2013-01-05 03:12:00,27.9,22.3,29.85,WNW,298,3.0,6.0,79,0.00,,,0.00,meteohub,2013-01-05 08:12:00,
2013-01-05 03:17:00,27.9,22.3,29.85,WNW,289,0.0,6.0,79,0.00,,,0.00,meteohub,2013-01-05 08:17:00,
2013-01-05 03:22:00,27.9,22.3,29.85,NNW,328,4.0,8.0,79,0.00,,,0.00,meteohub,2013-01-05 08:22:00,
2013-01-05 03:27:00,27.9,22.3,29.85,NW,318,4.0,8.0,79,0.00,,,0.00,meteohub,2013-01-05 08:27:00,
2013-01-05 03:32:00,28.0,22.5,29.85,WNW,288,0.0,8.0,79,0.00,,,0.00,meteohub,2013-01-05 08:32:00,
2013-01-05 03:37:00,28.0,22.5,29.85,WNW,285,0.0,6.0,79,0.00,,,0.00,meteohub,2013-01-05 08:37:00,
2013-01-05 03:42:00,28.0,22.1,29.85,NNW,338,3.0,6.0,78,0.00,,,0.00,meteohub,2013-01-05 08:42:00,
2013-01-05 03:47:00,28.0,22.1,29.85,WNW,298,3.0,8.0,78,0.00,,,0.00,meteohub,2013-01-05 08:47:00,
2013-01-05 03:52:00,28.0,22.1,29.85,NNW,341,0.0,8.0,78,0.00,,,0.00,meteohub,2013-01-05 08:52:00,
2013-01-05 03:57:00,28.0,22.1,29.85,WNW,296,0.0,8.0,78,0.00,,,0.00,meteohub,2013-01-05 08:57:00,
2013-01-05 04:02:00,28.0,22.1,29.85,SW,216,8.0,8.0,78,0.00,,,0.00,meteohub,2013-01-05 09:02:00,
2013-01-05 04:07:00,28.2,22.3,29.88,NW,325,5.0,8.0,78,0.00,,,0.00,meteohub,2013-01-05 09:07:00,
2013-01-05 04:12:00,28.0,22.1,29.88,NNW,334,4.0,8.0,78,0.00,,,0.00,meteohub,2013-01-05 09:12:00,
2013-01-05 04:17:00,28.0,22.1,29.88,WNW,300,0.0,8.0,78,0.00,,,0.00,meteohub,2013-01-05 09:17:00,
2013-01-05 04:22:00,28.0,22.1,29.88,WNW,286,0.0,6.0,78,0.00,,,0.00,meteohub,2013-01-05 09:22:00,
2013-01-05 04:27:00,28.0,22.1,29.88,West,280,0.0,5.0,78,0.00,,,0.00,meteohub,2013-01-05 09:27:00,
2013-01-05 04:32:00,28.0,22.1,29.88,NW,313,5.0,8.0,78,0.00,,,0.00,meteohub,2013-01-05 09:32:00,
2013-01-05 04:37:00,28.0,22.1,29.88,WNW,300,0.0,8.0,78,0.00,,,0.00,meteohub,2013-01-05 09:37:00,
2013-01-05 04:42:00,28.2,22.3,29.88,NW,311,0.0,8.0,78,0.00,,,0.00,meteohub,2013-01-05 09:42:00,
2013-01-05 04:47:00,28.2,22.3,29.88,NW,325,0.0,8.0,78,0.00,,,0.00,meteohub,2013-01-05 09:47:00,
2013-01-05 04:52:00,28.2,22.3,29.88,WNW,301,4.0,8.0,78,0.00,,,0.00,meteohub,2013-01-05 09:52:00,
2013-01-05 04:57:00,28.2,22.3,29.88,NW,318,4.0,8.0,78,0.00,,,0.00,meteohub,2013-01-05 09:57:00,
2013-01-05 05:03:00,28.2,22.3,29.88,NNW,343,5.0,6.0,78,0.00,,,0.00,meteohub,2013-01-05 10:03:00,
2013-01-05 05:08:00,28.4,22.5,29.91,NW,316,0.0,6.0,78,0.00,,,0.00,meteohub,2013-01-05 10:08:00,
2013-01-05 05:13:00,28.2,22.3,29.91,WSW,254,0.0,6.0,78,0.00,,,0.00,meteohub,2013-01-05 10:13:00,
2013-01-05 05:18:00,28.2,21.9,29.91,SW,218,3.0,6.0,77,0.00,,,0.00,meteohub,2013-01-05 10:18:00,
2013-01-05 05:23:00,28.2,21.9,29.91,NW,325,0.0,6.0,77,0.00,,,0.00,meteohub,2013-01-05 10:23:00,
2013-01-05 05:28:00,28.4,22.1,29.91,NW,318,4.0,7.0,77,0.00,,,0.00,meteohub,2013-01-05 10:28:00,
2013-01-05 05:33:00,28.4,22.1,29.91,NW,316,3.0,8.0,77,0.00,,,0.00,meteohub,2013-01-05 10:33:00,
2013-01-05 05:38:00,28.2,21.9,29.91,NW,320,0.0,8.0,77,0.00,,,0.00,meteohub,2013-01-05 10:38:00,
2013-01-05 05:43:00,28.2,21.9,29.91,WNW,285,0.0,8.0,77,0.00,,,0.00,meteohub,2013-01-05 10:43:00,
2013-01-05 05:48:00,28.2,21.9,29.91,SW,230,0.0,5.0,77,0.00,,,0.00,meteohub,2013-01-05 10:48:00,
2013-01-05 05:53:00,28.2,21.9,29.94,WNW,295,3.0,6.0,77,0.00,,,0.00,meteohub,2013-01-05 10:53:00,
2013-01-05 05:58:00,28.2,21.9,29.94,NW,312,0.0,6.0,77,0.00,,,0.00,meteohub,2013-01-05 10:58:00,
2013-01-05 06:03:00,28.2,21.9,29.94,WNW,301,4.0,6.0,77,0.00,,,0.00,meteohub,2013-01-05 11:03:00,
2013-01-05 06:08:00,28.0,21.4,29.94,WNW,288,0.0,6.0,76,0.00,,,0.00,meteohub,2013-01-05 11:08:00,
2013-01-05 06:13:00,28.0,21.4,29.94,WNW,303,4.0,8.0,76,0.00,,,0.00,meteohub,2013-01-05 11:13:00,
2013-01-05 06:18:00,28.0,21.4,29.94,NW,312,3.0,10.0,76,0.00,,,0.00,meteohub,2013-01-05 11:18:00,
2013-01-05 06:23:00,28.0,21.4,29.94,NW,305,4.0,10.0,76,0.00,,,0.00,meteohub,2013-01-05 11:23:00,
2013-01-05 06:28:00,28.0,21.4,29.94,West,270,4.0,10.0,76,0.00,,,0.00,meteohub,2013-01-05 11:28:00,
2013-01-05 06:33:00,28.0,21.4,29.94,NW,320,6.0,9.0,76,0.00,,,0.00,meteohub,2013-01-05 11:33:00,
2013-01-05 06:38:00,28.0,21.4,29.97,West,273,5.0,8.0,76,0.00,,,0.00,meteohub,2013-01-05 11:38:00,
2013-01-05 06:43:00,27.9,21.2,29.97,SSW,196,3.0,11.0,76,0.00,,,0.00,meteohub,2013-01-05 11:43:00,
2013-01-05 06:48:00,27.9,21.2,29.97,WNW,302,6.0,11.0,76,0.00,,,0.00,meteohub,2013-01-05 11:48:00,
2013-01-05 06:53:00,27.9,21.0,29.97,NW,312,6.0,11.0,75,0.00,,,0.00,meteohub,2013-01-05 11:53:00,
2013-01-05 06:58:00,28.0,21.2,29.97,NNW,341,8.0,10.0,75,0.00,,,0.00,meteohub,2013-01-05 11:58:00,
2013-01-05 07:03:00,28.0,21.2,29.97,NW,306,6.0,10.0,75,0.00,,,0.00,meteohub,2013-01-05 12:03:00,
2013-01-05 07:08:00,28.0,21.2,30.00,NW,315,0.0,10.0,75,0.00,,,0.00,meteohub,2013-01-05 12:08:00,
2013-01-05 07:13:00,28.2,21.4,30.00,NNW,328,4.0,12.0,75,0.00,,,0.00,meteohub,2013-01-05 12:13:00,
2013-01-05 07:18:00,28.2,21.4,30.00,WNW,302,4.0,12.0,75,0.00,,,0.00,meteohub,2013-01-05 12:18:00,
2013-01-05 07:23:00,28.4,21.6,30.00,WSW,246,0.0,12.0,75,0.00,,,0.00,meteohub,2013-01-05 12:23:00,
2013-01-05 07:28:00,28.4,21.6,30.00,WNW,288,2.0,11.0,75,0.00,,,0.00,meteohub,2013-01-05 12:28:00,
2013-01-05 07:33:00,28.4,21.6,30.00,NW,312,7.0,11.0,75,0.00,,,0.00,meteohub,2013-01-05 12:33:00,
2013-01-05 07:38:00,28.4,21.6,30.00,NW,315,6.0,13.0,75,0.00,,,0.00,meteohub,2013-01-05 12:38:00,
2013-01-05 07:43:00,28.6,21.7,30.00,WNW,290,3.0,13.0,75,0.00,,,0.00,meteohub,2013-01-05 12:43:00,
2013-01-05 07:48:00,28.6,21.7,30.00,NNW,332,6.0,13.0,75,0.00,,,0.00,meteohub,2013-01-05 12:48:00,
2013-01-05 07:53:00,28.6,21.7,30.03,West,279,8.0,13.0,75,0.00,,,0.00,meteohub,2013-01-05 12:53:00,
2013-01-05 07:58:00,28.6,21.4,30.03,NNW,334,7.0,13.0,74,0.00,,,0.00,meteohub,2013-01-05 12:58:00,
2013-01-05 08:03:00,28.8,21.6,30.03,North,0,8.0,13.0,74,0.00,,,0.00,meteohub,2013-01-05 13:03:00,
2013-01-05 08:08:00,28.8,21.6,30.03,NNW,329,12.0,13.0,74,0.00,,,0.00,meteohub,2013-01-05 13:08:00,
2013-01-05 08:13:00,28.9,21.7,30.03,NW,324,9.0,12.0,74,0.00,,,0.00,meteohub,2013-01-05 13:13:00,
2013-01-05 08:18:00,28.9,21.7,30.03,NW,319,11.0,12.0,74,0.00,,,0.00,meteohub,2013-01-05 13:18:00,
2013-01-05 08:23:00,28.9,21.7,30.06,WNW,284,8.0,12.0,74,0.00,,,0.00,meteohub,2013-01-05 13:23:00,
2013-01-05 08:28:00,28.8,20.8,30.06,NW,312,8.0,16.0,72,0.00,,,0.00,meteohub,2013-01-05 13:28:00,
2013-01-05 08:33:00,28.8,20.8,30.06,WNW,294,4.0,16.0,72,0.00,,,0.00,meteohub,2013-01-05 13:33:00,
2013-01-05 08:38:00,28.8,20.5,30.06,WNW,301,5.0,16.0,71,0.00,,,0.00,meteohub,2013-01-05 13:38:00,
2013-01-05 08:43:00,28.8,20.5,30.06,NW,324,13.0,16.0,71,0.00,,,0.00,meteohub,2013-01-05 13:43:00,
2013-01-05 08:48:00,28.6,20.1,30.06,West,269,5.0,17.0,70,0.00,,,0.00,meteohub,2013-01-05 13:48:00,
2013-01-05 08:53:00,28.6,19.0,30.06,North,353,6.0,17.0,67,0.00,,,0.00,meteohub,2013-01-05 13:53:00,
2013-01-05 08:58:00,28.4,18.9,30.06,NW,305,9.0,17.0,67,0.00,,,0.00,meteohub,2013-01-05 13:58:00,
2013-01-05 09:03:00,28.4,18.9,30.06,West,277,6.0,17.0,67,0.00,,,0.00,meteohub,2013-01-05 14:03:00,
2013-01-05 09:08:00,28.4,18.5,30.09,West,267,3.0,17.0,66,0.00,,,0.00,meteohub,2013-01-05 14:08:00,
2013-01-05 09:13:00,28.4,18.1,30.09,NW,317,19.0,19.0,65,0.00,,,0.00,meteohub,2013-01-05 14:13:00,
2013-01-05 09:18:00,28.2,17.6,30.09,NNW,343,5.0,19.0,64,0.00,,,0.00,meteohub,2013-01-05 14:18:00,
2013-01-05 09:23:00,28.2,17.6,30.09,SSW,213,4.0,19.0,64,0.00,,,0.00,meteohub,2013-01-05 14:23:00,
2013-01-05 09:28:00,28.2,17.2,30.09,NW,323,15.0,19.0,63,0.00,,,0.00,meteohub,2013-01-05 14:28:00,
2013-01-05 09:33:00,28.2,16.9,30.09,NW,307,11.0,21.0,62,0.00,,,0.00,meteohub,2013-01-05 14:33:00,
2013-01-05 09:38:00,28.2,16.5,30.12,West,266,6.0,21.0,61,0.00,,,0.00,meteohub,2013-01-05 14:38:00,
2013-01-05 09:43:00,28.4,16.7,30.12,NW,305,8.0,21.0,61,0.00,,,0.00,meteohub,2013-01-05 14:43:00,
2013-01-05 09:48:00,28.4,16.7,30.12,NNW,340,9.0,20.0,61,0.00,,,0.00,meteohub,2013-01-05 14:48:00,
2013-01-05 09:53:00,28.4,16.7,30.12,NW,313,15.0,20.0,61,0.00,,,0.00,meteohub,2013-01-05 14:53:00,
2013-01-05 09:58:00,28.2,16.2,30.12,NW,305,13.0,20.0,60,0.00,,,0.00,meteohub,2013-01-05 14:58:00,
2013-01-05 10:03:00,28.2,15.8,30.12,NW,308,11.0,16.0,59,0.00,,,0.00,meteohub,2013-01-05 15:03:00,
2013-01-05 10:08:00,28.2,15.8,30.12,WNW,294,3.0,20.0,59,0.00,,,0.00,meteohub,2013-01-05 15:08:00,
2013-01-05 10:13:00,28.2,15.8,30.12,NNW,331,21.0,21.0,59,0.00,,,0.00,meteohub,2013-01-05 15:13:00,
2013-01-05 10:18:00,28.4,15.4,30.12,NW,311,25.0,25.0,58,0.00,,,0.00,meteohub,2013-01-05 15:18:00,
2013-01-05 10:23:00,28.2,14.9,30.14,NNW,336,11.0,25.0,57,0.00,,,0.00,meteohub,2013-01-05 15:23:00,
2013-01-05 10:28:00,28.2,14.9,30.14,SSW,207,8.0,25.0,57,0.00,,,0.00,meteohub,2013-01-05 15:28:00,
2013-01-05 10:33:00,28.4,15.1,30.14,NW,305,11.0,25.0,57,0.00,,,0.00,meteohub,2013-01-05 15:33:00,
2013-01-05 10:38:00,28.2,14.9,30.14,WNW,286,6.0,20.0,57,0.00,,,0.00,meteohub,2013-01-05 15:38:00,
2013-01-05 10:43:00,28.4,15.1,30.14,NW,309,8.0,20.0,57,0.00,,,0.00,meteohub,2013-01-05 15:43:00,
2013-01-05 10:48:00,28.4,14.7,30.14,NW,322,8.0,20.0,56,0.00,,,0.00,meteohub,2013-01-05 15:48:00,
2013-01-05 10:53:00,28.4,15.1,30.14,WNW,290,8.0,17.0,57,0.00,,,0.00,meteohub,2013-01-05 15:53:00,
2013-01-05 10:58:00,28.6,14.9,30.14,WNW,293,5.0,17.0,56,0.00,,,0.00,meteohub,2013-01-05 15:58:00,
2013-01-05 11:03:00,28.6,14.9,30.14,NW,307,8.0,21.0,56,0.00,,,0.00,meteohub,2013-01-05 16:03:00,
2013-01-05 11:08:00,28.6,15.3,30.14,WNW,290,15.0,21.0,57,0.00,,,0.00,meteohub,2013-01-05 16:08:00,
2013-01-05 11:13:00,28.6,15.3,30.14,NW,306,10.0,21.0,57,0.00,,,0.00,meteohub,2013-01-05 16:13:00,
2013-01-05 11:18:00,28.6,14.9,30.14,NW,315,4.0,20.0,56,0.00,,,0.00,meteohub,2013-01-05 16:18:00,
2013-01-05 11:23:00,28.6,14.9,30.14,WNW,287,11.0,15.0,56,0.00,,,0.00,meteohub,2013-01-05 16:23:00,
2013-01-05 11:28:00,28.6,14.9,30.14,West,279,11.0,15.0,56,0.00,,,0.00,meteohub,2013-01-05 16:28:00,
2013-01-05 11:33:00,28.8,15.1,30.14,West,278,11.0,17.0,56,0.00,,,0.00,meteohub,2013-01-05 16:33:00,
2013-01-05 11:38:00,28.8,15.1,30.14,West,278,8.0,17.0,56,0.00,,,0.00,meteohub,2013-01-05 16:38:00,
2013-01-05 11:43:00,29.1,15.8,30.14,NW,314,10.0,17.0,57,0.00,,,0.00,meteohub,2013-01-05 16:43:00,
2013-01-05 11:48:00,29.1,15.8,30.14,WNW,295,8.0,17.0,57,0.00,,,0.00,meteohub,2013-01-05 16:48:00,
2013-01-05 11:53:00,29.1,15.8,30.14,NNW,331,5.0,15.0,57,0.00,,,0.00,meteohub,2013-01-05 16:53:00,
2013-01-05 11:58:00,29.1,15.8,30.14,WSW,254,8.0,12.0,57,0.00,,,0.00,meteohub,2013-01-05 16:58:00,
2013-01-05 12:03:00,29.3,15.6,30.14,NW,308,3.0,12.0,56,0.00,,,0.00,meteohub,2013-01-05 17:03:00,
2013-01-05 12:08:00,29.3,15.6,30.14,NW,306,13.0,13.0,56,0.00,,,0.00,meteohub,2013-01-05 17:08:00,
2013-01-05 12:13:00,29.3,15.6,30.14,NW,322,9.0,13.0,56,0.00,,,0.00,meteohub,2013-01-05 17:13:00,
2013-01-05 12:18:00,29.3,15.6,30.14,WNW,298,8.0,13.0,56,0.00,,,0.00,meteohub,2013-01-05 17:18:00,
2013-01-05 12:23:00,29.5,15.8,30.14,WNW,297,0.0,15.0,56,0.00,,,0.00,meteohub,2013-01-05 17:23:00,
2013-01-05 12:28:00,29.5,15.8,30.14,NW,322,8.0,16.0,56,0.00,,,0.00,meteohub,2013-01-05 17:28:00,
2013-01-05 12:33:00,29.7,15.8,30.14,NW,325,3.0,16.0,56,0.00,,,0.00,meteohub,2013-01-05 17:33:00,
2013-01-05 12:38:00,29.7,15.8,30.14,NNW,333,11.0,16.0,56,0.00,,,0.00,meteohub,2013-01-05 17:38:00,
2013-01-05 12:43:00,29.7,15.8,30.14,WNW,291,6.0,17.0,56,0.00,,,0.00,meteohub,2013-01-05 17:43:00,
2013-01-05 12:48:00,29.7,15.8,30.14,NNW,343,9.0,17.0,56,0.00,,,0.00,meteohub,2013-01-05 17:48:00,
2013-01-05 12:53:00,29.8,16.0,30.14,WNW,291,6.0,17.0,56,0.00,,,0.00,meteohub,2013-01-05 17:53:00,
2013-01-05 12:58:00,29.8,16.0,30.14,WNW,294,7.0,15.0,56,0.00,,,0.00,meteohub,2013-01-05 17:58:00,
2013-01-05 13:03:00,29.7,15.8,30.14,NW,322,5.0,13.0,56,0.00,,,0.00,meteohub,2013-01-05 18:03:00,
2013-01-05 13:08:00,29.7,15.8,30.14,NW,306,6.0,15.0,56,0.00,,,0.00,meteohub,2013-01-05 18:08:00,
2013-01-05 13:13:00,29.8,16.0,30.14,NW,314,5.0,15.0,56,0.00,,,0.00,meteohub,2013-01-05 18:13:00,
2013-01-05 13:18:00,30.0,16.2,30.14,SSW,209,3.0,15.0,56,0.00,,,0.00,meteohub,2013-01-05 18:18:00,
2013-01-05 13:24:00,30.0,16.2,30.14,NW,307,6.0,13.0,56,0.00,,,0.00,meteohub,2013-01-05 18:24:00,
2013-01-05 13:29:00,30.0,16.2,30.14,WNW,302,4.0,11.0,56,0.00,,,0.00,meteohub,2013-01-05 18:29:00,
2013-01-05 13:33:00,29.8,15.6,30.14,South,180,4.0,11.0,55,0.00,,,0.00,meteohub,2013-01-05 18:33:00,
2013-01-05 13:38:00,30.0,16.2,30.17,South,169,4.0,11.0,56,0.00,,,0.00,meteohub,2013-01-05 18:38:00,
2013-01-05 13:43:00,29.8,15.6,30.17,NW,312,4.0,11.0,55,0.00,,,0.00,meteohub,2013-01-05 18:43:00,
2013-01-05 13:48:00,29.8,15.6,30.17,NNW,339,6.0,11.0,55,0.00,,,0.00,meteohub,2013-01-05 18:48:00,
2013-01-05 13:53:00,29.8,15.6,30.17,North,353,5.0,13.0,55,0.00,,,0.00,meteohub,2013-01-05 18:53:00,
2013-01-05 13:59:00,29.7,15.4,30.17,WNW,299,3.0,13.0,55,0.00,,,0.00,meteohub,2013-01-05 18:59:00,
2013-01-05 14:04:00,29.7,15.4,30.17,WNW,297,3.0,13.0,55,0.00,,,0.00,meteohub,2013-01-05 19:04:00,
2013-01-05 14:09:00,29.7,15.4,30.17,West,269,0.0,11.0,55,0.00,,,0.00,meteohub,2013-01-05 19:09:00,
2013-01-05 14:14:00,29.7,15.4,30.17,West,280,4.0,10.0,55,0.00,,,0.00,meteohub,2013-01-05 19:14:00,
2013-01-05 14:19:00,29.7,15.4,30.17,NNW,341,5.0,8.0,55,0.00,,,0.00,meteohub,2013-01-05 19:19:00,
2013-01-05 14:24:00,29.5,15.3,30.17,NW,311,0.0,8.0,55,0.00,,,0.00,meteohub,2013-01-05 19:24:00,
2013-01-05 14:29:00,29.3,15.1,30.17,WNW,287,10.0,10.0,55,0.00,,,0.00,meteohub,2013-01-05 19:29:00,
2013-01-05 14:34:00,29.1,14.9,30.17,NNW,344,6.0,11.0,55,0.00,,,0.00,meteohub,2013-01-05 19:34:00,
2013-01-05 14:39:00,29.1,15.4,30.17,West,259,0.0,11.0,56,0.00,,,0.00,meteohub,2013-01-05 19:39:00,
2013-01-05 14:44:00,29.1,15.4,30.17,NW,316,5.0,11.0,56,0.00,,,0.00,meteohub,2013-01-05 19:44:00,
2013-01-05 14:49:00,29.1,15.4,30.17,NW,320,0.0,9.0,56,0.00,,,0.00,meteohub,2013-01-05 19:49:00,
2013-01-05 14:54:00,29.1,15.4,30.17,WNW,283,0.0,9.0,56,0.00,,,0.00,meteohub,2013-01-05 19:54:00,
2013-01-05 14:59:00,29.1,15.4,30.17,NW,317,5.0,9.0,56,0.00,,,0.00,meteohub,2013-01-05 19:59:00,
2013-01-05 15:04:00,28.9,15.3,30.17,NW,308,4.0,11.0,56,0.00,,,0.00,meteohub,2013-01-05 20:04:00,
2013-01-05 15:09:00,28.8,15.1,30.17,West,279,5.0,11.0,56,0.00,,,0.00,meteohub,2013-01-05 20:09:00,
2013-01-05 15:14:00,28.8,15.1,30.17,WNW,292,3.0,11.0,56,0.00,,,0.00,meteohub,2013-01-05 20:14:00,
2013-01-05 15:19:00,28.8,15.1,30.17,WNW,300,4.0,11.0,56,0.00,,,0.00,meteohub,2013-01-05 20:19:00,
2013-01-05 15:24:00,28.8,15.1,30.17,WNW,299,0.0,11.0,56,0.00,,,0.00,meteohub,2013-01-05 20:24:00,
2013-01-05 15:29:00,28.6,14.9,30.17,WNW,294,3.0,11.0,56,0.00,,,0.00,meteohub,2013-01-05 20:29:00,
2013-01-05 15:34:00,28.6,14.9,30.17,NW,319,4.0,6.0,56,0.00,,,0.00,meteohub,2013-01-05 20:34:00,
2013-01-05 15:39:00,28.6,14.9,30.17,WNW,291,0.0,6.0,56,0.00,,,0.00,meteohub,2013-01-05 20:39:00,
2013-01-05 15:44:00,28.4,14.7,30.17,WNW,289,4.0,6.0,56,0.00,,,0.00,meteohub,2013-01-05 20:44:00,
2013-01-05 15:49:00,28.2,14.5,30.17,WNW,303,2.0,6.0,56,0.00,,,0.00,meteohub,2013-01-05 20:49:00,
2013-01-05 15:54:00,28.2,14.5,30.17,NW,322,5.0,6.0,56,0.00,,,0.00,meteohub,2013-01-05 20:54:00,
2013-01-05 15:59:00,28.0,14.4,30.17,WNW,290,4.0,7.0,56,0.00,,,0.00,meteohub,2013-01-05 20:59:00,
2013-01-05 16:04:00,28.0,14.4,30.17,NW,304,5.0,8.0,56,0.00,,,0.00,meteohub,2013-01-05 21:04:00,
2013-01-05 16:09:00,27.9,14.2,30.17,WNW,293,3.0,11.0,56,0.00,,,0.00,meteohub,2013-01-05 21:09:00,
2013-01-05 16:14:00,27.9,14.5,30.17,NNW,330,5.0,11.0,57,0.00,,,0.00,meteohub,2013-01-05 21:14:00,
2013-01-05 16:19:00,27.7,14.4,30.17,North,5,4.0,11.0,57,0.00,,,0.00,meteohub,2013-01-05 21:19:00,
2013-01-05 16:24:00,27.7,14.4,30.17,WNW,286,0.0,11.0,57,0.00,,,0.00,meteohub,2013-01-05 21:24:00,
2013-01-05 16:29:00,27.5,14.2,30.17,WNW,295,0.0,11.0,57,0.00,,,0.00,meteohub,2013-01-05 21:29:00,
2013-01-05 16:34:00,27.5,14.7,30.17,WNW,295,0.0,6.0,58,0.00,,,0.00,meteohub,2013-01-05 21:34:00,
2013-01-05 16:39:00,27.5,14.7,30.20,WNW,291,0.0,6.0,58,0.00,,,0.00,meteohub,2013-01-05 21:39:00,
2013-01-05 16:44:00,27.3,14.5,30.20,WNW,286,0.0,6.0,58,0.00,,,0.00,meteohub,2013-01-05 21:44:00,
2013-01-05 16:49:00,27.0,14.2,30.20,East,97,0.0,6.0,58,0.00,,,0.00,meteohub,2013-01-05 21:49:00,
2013-01-05 16:54:00,27.0,14.2,30.20,ESE,102,0.0,6.0,58,0.00,,,0.00,meteohub,2013-01-05 21:54:00,
2013-01-05 16:59:00,27.0,14.2,30.20,ESE,102,0.0,4.0,58,0.00,,,0.00,meteohub,2013-01-05 21:59:00,
2013-01-05 17:04:00,27.0,14.5,30.20,WSW,250,0.0,0.0,59,0.00,,,0.00,meteohub,2013-01-05 22:04:00,
2013-01-05 17:09:00,26.8,14.4,30.20,West,275,0.0,0.0,59,0.00,,,0.00,meteohub,2013-01-05 22:09:00,
2013-01-05 17:14:00,26.6,14.5,30.20,West,270,0.0,2.0,60,0.00,,,0.00,meteohub,2013-01-05 22:14:00,
2013-01-05 17:19:00,26.4,14.4,30.20,WSW,247,0.0,4.0,60,0.00,,,0.00,meteohub,2013-01-05 22:19:00,
2013-01-05 17:24:00,26.4,14.4,30.20,ESE,107,0.0,4.0,60,0.00,,,0.00,meteohub,2013-01-05 22:24:00,
2013-01-05 17:29:00,26.4,14.4,30.20,East,96,0.0,4.0,60,0.00,,,0.00,meteohub,2013-01-05 22:29:00,
2013-01-05 17:34:00,26.2,14.2,30.20,North,0,0.0,0.0,60,0.00,,,0.00,meteohub,2013-01-05 22:34:00,
2013-01-05 17:39:00,26.4,14.7,30.20,WNW,294,0.0,0.0,61,0.00,,,0.00,meteohub,2013-01-05 22:39:00,
2013-01-05 17:44:00,26.2,14.5,30.20,West,259,0.0,6.0,61,0.00,,,0.00,meteohub,2013-01-05 22:44:00,
2013-01-05 17:49:00,26.1,14.5,30.20,NNW,339,5.0,6.0,61,0.00,,,0.00,meteohub,2013-01-05 22:49:00,
2013-01-05 17:54:00,26.1,14.5,30.20,NNW,337,0.0,6.0,61,0.00,,,0.00,meteohub,2013-01-05 22:54:00,
2013-01-05 17:59:00,25.9,14.4,30.20,NNW,337,0.0,6.0,61,0.00,,,0.00,meteohub,2013-01-05 22:59:00,
2013-01-05 18:04:00,25.7,14.2,30.20,NNW,337,0.0,6.0,61,0.00,,,0.00,meteohub,2013-01-05 23:04:00,
2013-01-05 18:09:00,25.9,14.7,30.23,NNW,337,0.0,0.0,62,0.00,,,0.00,meteohub,2013-01-05 23:09:00,
2013-01-05 18:14:00,25.9,14.7,30.23,NNW,337,0.0,0.0,62,0.00,,,0.00,meteohub,2013-01-05 23:14:00,
2013-01-05 18:19:00,25.7,14.5,30.23,NNW,337,0.0,0.0,62,0.00,,,0.00,meteohub,2013-01-05 23:19:00,
2013-01-05 18:24:00,25.3,13.8,30.23,NNW,337,0.0,0.0,61,0.00,,,0.00,meteohub,2013-01-05 23:24:00,
2013-01-05 18:29:00,25.3,14.2,30.23,NNW,337,0.0,0.0,62,0.00,,,0.00,meteohub,2013-01-05 23:29:00,
2013-01-05 18:34:00,25.3,14.2,30.23,NNW,337,0.0,0.0,62,0.00,,,0.00,meteohub,2013-01-05 23:34:00,
2013-01-05 18:39:00,25.0,13.8,30.23,NNW,337,0.0,0.0,62,0.00,,,0.00,meteohub,2013-01-05 23:39:00,
2013-01-05 18:44:00,25.2,14.0,30.23,NNW,337,0.0,0.0,62,0.00,,,0.00,meteohub,2013-01-05 23:44:00,
2013-01-05 18:49:00,24.8,13.6,30.23,NNW,337,0.0,0.0,62,0.00,,,0.00,meteohub,2013-01-05 23:49:00,
2013-01-05 18:54:00,24.6,13.5,30.23,NNW,337,0.0,0.0,62,0.00,,,0.00,meteohub,2013-01-05 23:54:00,
2013-01-05 18:59:00,24.6,13.5,30.23,NNW,337,0.0,0.0,62,0.00,,,0.00,meteohub,2013-01-05 23:59:00,
2013-01-05 19:04:00,24.6,13.8,30.23,NNW,337,0.0,0.0,63,0.00,,,0.00,meteohub,2013-01-06 00:04:00,
2013-01-05 19:09:00,24.6,13.8,30.23,NNW,337,0.0,0.0,63,0.00,,,0.00,meteohub,2013-01-06 00:09:00,
2013-01-05 19:14:00,24.4,14.0,30.23,NNW,337,0.0,0.0,64,0.00,,,0.00,meteohub,2013-01-06 00:14:00,
2013-01-05 19:19:00,24.4,14.0,30.23,NNW,337,0.0,0.0,64,0.00,,,0.00,meteohub,2013-01-06 00:19:00,
2013-01-05 19:24:00,24.3,13.5,30.23,NNW,337,0.0,0.0,63,0.00,,,0.00,meteohub,2013-01-06 00:24:00,
2013-01-05 19:29:00,24.4,14.0,30.23,NNW,337,0.0,0.0,64,0.00,,,0.00,meteohub,2013-01-06 00:29:00,
2013-01-05 19:34:00,24.3,13.8,30.23,NNW,337,0.0,0.0,64,0.00,,,0.00,meteohub,2013-01-06 00:34:00,
2013-01-05 19:39:00,23.9,13.5,30.23,NNW,337,0.0,0.0,64,0.00,,,0.00,meteohub,2013-01-06 00:39:00,
2013-01-05 19:44:00,23.9,13.5,30.23,NNW,337,0.0,0.0,64,0.00,,,0.00,meteohub,2013-01-06 00:44:00,
2013-01-05 19:49:00,23.7,13.3,30.23,NNW,337,0.0,0.0,64,0.00,,,0.00,meteohub,2013-01-06 00:49:00,
2013-01-05 19:54:00,23.7,13.3,30.23,NNW,337,0.0,0.0,64,0.00,,,0.00,meteohub,2013-01-06 00:54:00,
2013-01-05 19:59:00,23.7,13.3,30.23,NNW,337,0.0,0.0,64,0.00,,,0.00,meteohub,2013-01-06 00:59:00,
2013-01-05 20:04:00,23.9,13.8,30.23,NNW,337,0.0,0.0,65,0.00,,,0.00,meteohub,2013-01-06 01:04:00,
2013-01-05 20:09:00,23.5,13.5,30.23,NNW,337,0.0,0.0,65,0.00,,,0.00,meteohub,2013-01-06 01:09:00,
2013-01-05 20:14:00,23.4,13.3,30.23,NNW,337,0.0,0.0,65,0.00,,,0.00,meteohub,2013-01-06 01:14:00,
2013-01-05 20:19:00,23.0,12.9,30.23,NNW,337,0.0,0.0,65,0.00,,,0.00,meteohub,2013-01-06 01:19:00,
2013-01-05 20:24:00,23.0,12.9,30.20,NNW,337,0.0,0.0,65,0.00,,,0.00,meteohub,2013-01-06 01:24:00,
2013-01-05 20:29:00,23.2,13.1,30.20,NNW,337,0.0,0.0,65,0.00,,,0.00,meteohub,2013-01-06 01:29:00,
2013-01-05 20:34:00,22.8,12.7,30.20,NNW,337,0.0,0.0,65,0.00,,,0.00,meteohub,2013-01-06 01:34:00,
2013-01-05 20:39:00,22.6,12.7,30.23,NNW,337,0.0,0.0,65,0.00,,,0.00,meteohub,2013-01-06 01:39:00,
2013-01-05 20:44:00,22.8,12.7,30.23,NNW,337,0.0,0.0,65,0.00,,,0.00,meteohub,2013-01-06 01:44:00,
2013-01-05 20:49:00,22.6,12.7,30.23,NNW,337,0.0,0.0,65,0.00,,,0.00,meteohub,2013-01-06 01:49:00,
2013-01-05 20:54:00,22.6,12.7,30.23,NNW,337,0.0,0.0,65,0.00,,,0.00,meteohub,2013-01-06 01:54:00,
2013-01-05 20:59:00,22.3,12.4,30.23,NNW,337,0.0,0.0,65,0.00,,,0.00,meteohub,2013-01-06 01:59:00,
2013-01-05 21:04:00,22.1,12.2,30.23,NNW,337,0.0,0.0,65,0.00,,,0.00,meteohub,2013-01-06 02:04:00,
2013-01-05 21:09:00,22.1,12.2,30.23,NNW,337,0.0,0.0,65,0.00,,,0.00,meteohub,2013-01-06 02:09:00,
2013-01-05 21:14:00,21.9,12.0,30.23,NNW,337,0.0,0.0,65,0.00,,,0.00,meteohub,2013-01-06 02:14:00,
2013-01-05 21:19:00,21.7,11.8,30.23,NNW,337,0.0,0.0,65,0.00,,,0.00,meteohub,2013-01-06 02:19:00,
2013-01-05 21:24:00,21.7,11.8,30.23,NNW,337,0.0,0.0,65,0.00,,,0.00,meteohub,2013-01-06 02:24:00,
2013-01-05 21:29:00,21.9,12.4,30.23,NNW,337,0.0,0.0,66,0.00,,,0.00,meteohub,2013-01-06 02:29:00,
2013-01-05 21:34:00,22.1,12.6,30.23,NNW,337,0.0,0.0,66,0.00,,,0.00,meteohub,2013-01-06 02:34:00,
2013-01-05 21:39:00,21.9,12.4,30.20,NNW,337,0.0,0.0,66,0.00,,,0.00,meteohub,2013-01-06 02:39:00,
2013-01-05 21:44:00,21.7,12.2,30.20,NNW,337,0.0,0.0,66,0.00,,,0.00,meteohub,2013-01-06 02:44:00,
2013-01-05 21:49:00,21.6,12.0,30.20,NNW,337,0.0,0.0,66,0.00,,,0.00,meteohub,2013-01-06 02:49:00,
2013-01-05 21:54:00,21.2,11.7,30.23,NNW,337,0.0,0.0,66,0.00,,,0.00,meteohub,2013-01-06 02:54:00,
2013-01-05 21:59:00,21.0,11.1,30.23,NNW,336,0.0,0.0,65,0.00,,,0.00,meteohub,2013-01-06 02:59:00,
2013-01-05 22:04:00,21.2,11.3,30.23,NNW,337,0.0,0.0,65,0.00,,,0.00,meteohub,2013-01-06 03:04:00,
2013-01-05 22:09:00,20.8,10.9,30.20,NNW,337,0.0,0.0,65,0.00,,,0.00,meteohub,2013-01-06 03:09:00,
2013-01-05 22:14:00,20.7,10.8,30.20,NNW,339,0.0,0.0,65,0.00,,,0.00,meteohub,2013-01-06 03:14:00,
2013-01-05 22:19:00,20.7,10.8,30.20,NNW,337,0.0,0.0,65,0.00,,,0.00,meteohub,2013-01-06 03:19:00,
2013-01-05 22:24:00,20.7,10.8,30.23,NNW,337,0.0,0.0,65,0.00,,,0.00,meteohub,2013-01-06 03:24:00,
2013-01-05 22:29:00,20.7,11.1,30.23,NNW,337,0.0,0.0,66,0.00,,,0.00,meteohub,2013-01-06 03:29:00,
2013-01-05 22:34:00,20.5,10.9,30.23,NNW,337,0.0,0.0,66,0.00,,,0.00,meteohub,2013-01-06 03:34:00,
2013-01-05 22:39:00,20.5,10.9,30.23,NNW,337,0.0,0.0,66,0.00,,,0.00,meteohub,2013-01-06 03:39:00,
2013-01-05 22:44:00,20.8,11.3,30.23,NNW,337,0.0,0.0,66,0.00,,,0.00,meteohub,2013-01-06 03:44:00,
2013-01-05 22:49:00,21.0,11.8,30.23,WNW,300,0.0,4.0,67,0.00,,,0.00,meteohub,2013-01-06 03:49:00,
2013-01-05 22:54:00,20.8,11.7,30.20,WNW,300,0.0,4.0,67,0.00,,,0.00,meteohub,2013-01-06 03:54:00,
2013-01-05 22:59:00,20.5,11.3,30.20,WNW,301,0.0,4.0,67,0.00,,,0.00,meteohub,2013-01-06 03:59:00,
2013-01-05 23:05:00,20.5,11.3,30.20,WNW,301,0.0,3.0,67,0.00,,,0.00,meteohub,2013-01-06 04:05:00,
2013-01-05 23:10:00,20.3,11.1,30.20,WNW,301,0.0,0.0,67,0.00,,,0.00,meteohub,2013-01-06 04:10:00,
2013-01-05 23:15:00,20.3,11.1,30.20,WNW,301,0.0,0.0,67,0.00,,,0.00,meteohub,2013-01-06 04:15:00,
2013-01-05 23:20:00,20.5,11.3,30.20,WNW,301,0.0,0.0,67,0.00,,,0.00,meteohub,2013-01-06 04:20:00,
2013-01-05 23:25:00,20.8,12.0,30.20,WNW,301,0.0,0.0,68,0.00,,,0.00,meteohub,2013-01-06 04:25:00,
2013-01-05 23:30:00,20.8,12.0,30.20,WNW,301,0.0,0.0,68,0.00,,,0.00,meteohub,2013-01-06 04:30:00,
2013-01-05 23:35:00,20.5,11.7,30.20,WNW,302,0.0,0.0,68,0.00,,,0.00,meteohub,2013-01-06 04:35:00,
2013-01-05 23:40:00,20.3,11.1,30.20,WNW,301,0.0,0.0,67,0.00,,,0.00,meteohub,2013-01-06 04:40:00,
2013-01-05 23:45:00,20.5,11.7,30.20,WNW,301,0.0,0.0,68,0.00,,,0.00,meteohub,2013-01-06 04:45:00,
2013-01-05 23:50:00,20.5,11.7,30.20,WNW,301,0.0,0.0,68,0.00,,,0.00,meteohub,2013-01-06 04:50:00,
2013-01-05 23:55:00,20.1,10.9,30.20,WNW,301,0.0,0.0,67,0.00,,,0.00,meteohub,2013-01-06 04:55:00,